This demonstration page uses our WeatherBlox Daily Observations layout. Learn more.

Left ArrowRight Arrow

39.08367, -84.50855

Hourly Observations for December 27, 2016

Temp ( °F °C ) Dew Point ( °F °C ) Humidity (%) Winds ( mph kmh ) Pressure ( in mb ) Visibility ( mi km ) Precip ( " mm )
12:53 am 00:53 Cloudy 54 12 N/A N/A W 7 11 30.06 1018 10 16 0.00 0.00
1:53 am 01:53 Cloudy 53 11.7 52 11.1 96 96 W 13 20 30.08 1019 10 16 0.00 0.00
2:53 am 02:53 Cloudy 51 10.6 43 6.1 74 74 WNW 10 17 30.09 1019 10 16 0.00 0.00
3:53 am 03:53 Mostly Cloudy 47 8.3 36 2.2 66 66 WNW 13 20 30.10 1019 10 16 0.00 0.00
4:53 am 04:53 Clear 42 5.6 32 0 68 68 W 10 17 30.14 1021 10 16 0.00 0.00
5:53 am 05:53 Clear 39 3.9 27 -2.8 62 62 W 17 28 30.18 1022 10 16 0.00 0.00
6:53 am 06:53 Clear 35 1.7 26 -3.3 70 70 W 9 15 30.19 1022 10 16 0.00 0.00
7:53 am 07:53 Clear 34 1.1 25 -3.9 70 70 WNW 9 15 30.21 1023 10 16 0.00 0.00
8:53 am 08:53 Sunny 35 1.7 26 -3.3 70 70 WSW 8 13 30.22 1023 10 16 0.00 0.00
9:53 am 09:53 Sunny 37 2.8 25 -3.9 62 62 WSW 10 17 30.24 1024 10 16 0.00 0.00
10:53 am 10:53 Sunny 39 3.9 26 -3.3 60 60 WSW 15 24 30.23 1024 10 16 0.00 0.00
11:53 am 11:53 Sunny 40 4.4 27 -2.8 60 60 WSW 10 17 30.21 1023 10 16 0.00 0.00
12:53 pm 12:53 Sunny 42 5.6 28 -2.2 58 58 W 14 22 30.20 1023 10 16 0.00 0.00
1:53 pm 13:53 Sunny 43 6.1 28 -2.2 56 56 WSW 14 22 30.19 1022 10 16 0.00 0.00
2:53 pm 14:53 Sunny 44 6.7 28 -2.2 53 53 WSW 10 17 30.16 1021 10 16 0.00 0.00
3:53 pm 15:53 Sunny 44 6.7 28 -2.2 53 53 W 15 24 30.17 1022 10 16 0.00 0.00
4:53 pm 16:53 Sunny 42 5.6 29 -1.7 60 60 W 8 13 30.18 1022 10 16 0.00 0.00
5:53 pm 17:53 Clear 40 4.4 28 -2.2 63 63 WSW 12 19 30.19 1022 10 16 0.00 0.00
6:53 pm 18:53 Clear 37 2.8 28 -2.2 70 70 SW 7 11 30.20 1023 10 16 0.00 0.00
7:53 pm 19:53 Clear 35 1.7 27 -2.8 72 72 SW 7 11 30.21 1023 10 16 0.00 0.00
8:53 pm 20:53 Clear 36 2.2 26 -3.3 67 67 WSW 8 13 30.21 1023 10 16 0.00 0.00
9:53 pm 21:53 Clear 35 1.7 25 -3.9 67 67 WSW 6 9 30.22 1024 10 16 0.00 0.00
10:53 pm 22:53 Clear 34 1.1 25 -3.9 70 70 WSW 3 6 30.24 1024 10 16 0.00 0.00
11:53 pm 23:53 Clear 32 0 25 -3.9 75 75 SW 6 9 30.24 1024 10 16 0.00 0.00

Powered by AerisWeather